{"data":{"norad_id":58452,"epoch":"2026-05-24T20:29:41.088192Z","epoch_age_seconds":94559,"freshness":"FRESH","line1":"1 58452U 23183R   26144.85394778  .00000370  00000+0  22964-4 0  9995","line2":"2 58452  43.0010 331.3993 0002239 266.5613  93.4983 15.27582665138375","mean_motion":15.27582665,"eccentricity":0.0002239,"inclination_deg":43.001,"raan_deg":331.3993,"arg_perigee_deg":266.5613,"mean_anomaly_deg":93.4983,"bstar":2.2964e-5,"rev_number":13837,"period_min":94.26658425716,"perigee_km":481.50489830233,"apogee_km":484.57733386272,"semimajor_km":6861.1781160825,"source":"CELESTRAK","updated_at":"2026-05-25T13:38:18.625052Z"}}